Weather History for Fort Indiantown Gap, PA

Change the Weather History Date:

Friday, December 7, 2012

  Actual Average Record
Temperature  
Mean Temperature 32 °F -  
Max Temperature 39 °F 43 °F 69 °F (1998)
Min Temperature 26 °F 31 °F 12 °F (2007)
Degree Days  
Heating Degree Days 32    
Moisture  
Dew Point 35 °F    
Average Humidity 97    
Maximum Humidity 100    
Minimum Humidity 76    
Precipitation  
Precipitation 0.38 in - - ()
Sea Level Pressure  
Sea Level Pressure 30.12 in    
Wind  
Wind Speed 1 mph (NE)    
Max Wind Speed 5 mph    
Max Gust Speed -    
Visibility 4 miles    
Events Rain    
Averages and records for this station are not official NWS values.
T = Trace of Precipitation, MM = Missing Value Source: NWS Daily Summary

Daily Weather History Graph

Daily Weather History Graph

Search for Another Location

Airport:

Trip Planner

Search our weather history database for the weather conditions in past years. The results will help you decide how hot, cold, wet, or windy it might be!

Date:

Astronomy

Dec. 07, 2012 Rise Set
Actual Time 7:16 AM EST 4:39 PM EST
Civil Twilight 6:45 AM EST 5:10 PM EST
Nautical Twilight 6:11 AM EST 5:44 PM EST
Astronomical Twilight 5:38 AM EST 6:17 PM EST
Moon 12:32 AM EST (12/7) 12:36 PM EST (12/7)
Length of Visible Light 10h 24m
Length of Day
9h 23m
Last Quarter, 39% of the Moon is Illuminated
Dec 7
Last Quarter
Dec 13
New
Dec 20
First Quarter
Dec 28
Full
Jan 4
Last Quarter

Hourly Weather History & Observations

Time (EST) Temp. Windchill Dew Point Humidity Pressure Visibility Wind Dir Wind Speed Gust Speed Precip Events Conditions
12:55 AM 26.6 °F 22.6 °F 22.6 °F 85% 30.25 in 10.0 mi NE 3.5 mph - N/A   Clear
1:55 AM 27.7 °F - 23.2 °F 83% 30.24 in 10.0 mi Calm Calm - N/A   Scattered Clouds
2:55 AM 30.2 °F - 23.4 °F 76% 30.24 in 10.0 mi Calm Calm - N/A   Overcast
3:55 AM 30.9 °F 27.5 °F 25.9 °F 82% 30.20 in 10.0 mi ENE 3.5 mph - N/A   Overcast
4:55 AM 31.6 °F - 26.4 °F 81% 30.19 in 10.0 mi Calm Calm - N/A   Overcast
5:38 AM 32.0 °F - 26.6 °F 80% 30.19 in 10.0 mi Calm Calm - N/A   Overcast
5:55 AM 32.0 °F - 28.8 °F 88% 30.19 in 10.0 mi Calm Calm - 0.00 in Rain Light Rain
6:52 AM 32.0 °F - 30.2 °F 93% 30.19 in 10.0 mi Calm Calm - N/A   Overcast
6:55 AM 32.2 °F - 30.7 °F 94% 30.19 in 10.0 mi Calm Calm - 0.01 in   Overcast
7:30 AM 32.0 °F - 32.0 °F 100% 30.19 in 10.0 mi Calm Calm - N/A   Light Drizzle
7:39 AM 32.0 °F - 30.2 °F 93% 30.19 in 10.0 mi Calm Calm - N/A   Overcast
7:55 AM 32.7 °F - 31.3 °F 94% 30.19 in 10.0 mi Calm Calm - 0.00 in   Overcast
8:04 AM 32.0 °F 28.7 °F 32.0 °F 100% 30.19 in 9.0 mi NE 3.5 mph - N/A Rain Light Rain
8:17 AM 32.0 °F 27.5 °F 32.0 °F 100% 30.19 in 3.0 mi NE 4.6 mph - N/A Rain Light Rain
8:22 AM 32.0 °F 28.7 °F 32.0 °F 100% 30.19 in 2.5 mi NE 3.5 mph - N/A Rain Light Rain
8:26 AM 32.0 °F 28.7 °F 32.0 °F 100% 30.19 in 2.5 mi NE 3.5 mph - N/A Rain Light Rain
8:27 AM 32.0 °F 28.7 °F 32.0 °F 100% 30.19 in 3.0 mi NE 3.5 mph - N/A Rain Light Rain
8:55 AM 32.7 °F - 32.4 °F 99% 30.19 in 4.0 mi Calm Calm - 0.05 in Rain Light Rain
9:55 AM 32.9 °F - 32.7 °F 99% 30.19 in 5.0 mi Calm Calm - 0.07 in Rain Light Rain
10:08 AM 33.8 °F 30.8 °F 32.0 °F 93% 30.19 in 4.0 mi NE 3.5 mph - N/A Rain Light Rain
10:24 AM 33.8 °F 30.8 °F 33.8 °F 100% 30.19 in 2.5 mi Variable 3.5 mph - N/A Rain Light Rain
10:35 AM 33.8 °F - 33.8 °F 100% 30.19 in 3.0 mi Calm Calm - N/A Rain Light Rain
10:55 AM 33.6 °F - 33.4 °F 99% 30.17 in 2.5 mi Calm Calm - 0.08 in Rain Light Rain
11:10 AM 33.8 °F 30.8 °F 33.8 °F 100% 30.17 in 3.0 mi NE 3.5 mph - N/A Rain Light Rain
11:20 AM 33.8 °F 30.8 °F 33.8 °F 100% 30.16 in 3.0 mi Variable 3.5 mph - N/A Rain Light Rain
11:22 AM 33.8 °F - 33.8 °F 100% 30.16 in 2.5 mi Calm Calm - N/A Rain Light Rain
11:55 AM 34.5 °F - 34.3 °F 99% 30.14 in 2.5 mi Calm Calm - 0.03 in   Light Drizzle
12:00 PM 33.8 °F 30.8 °F 33.8 °F 100% 30.14 in 3.0 mi NE 3.5 mph - N/A   Light Drizzle
12:11 PM 35.6 °F - 33.8 °F 93% 30.13 in 2.5 mi Calm Calm - N/A   Light Drizzle
12:22 PM 35.6 °F 32.8 °F 33.8 °F 93% 30.13 in 2.5 mi ENE 3.5 mph - N/A   Overcast
12:27 PM 35.6 °F 32.8 °F 35.6 °F 100% 30.12 in 3.0 mi NE 3.5 mph - N/A   Overcast
12:55 PM 35.4 °F 32.6 °F 35.2 °F 99% 30.11 in 3.0 mi ENE 3.5 mph - 0.00 in   Overcast
1:06 PM 35.6 °F - 35.6 °F 100% 30.11 in 3.0 mi Calm Calm - N/A Rain Light Rain
1:18 PM 35.6 °F 32.8 °F 35.6 °F 100% 30.10 in 4.0 mi NE 3.5 mph - N/A   Overcast
1:22 PM 35.6 °F 32.8 °F 35.6 °F 100% 30.10 in 4.0 mi NNE 3.5 mph - N/A   Light Drizzle
1:53 PM 35.6 °F - 35.6 °F 100% 30.08 in 2.5 mi Calm Calm - N/A Rain Light Rain
1:55 PM 36.1 °F - 36.0 °F 99% 30.08 in 2.5 mi Calm Calm - 0.01 in Rain Light Rain
2:27 PM 37.4 °F 34.9 °F 35.6 °F 93% 30.09 in 2.5 mi NNE 3.5 mph - N/A Rain Light Rain
2:38 PM 37.4 °F - 35.6 °F 93% 30.09 in 2.5 mi Calm Calm - N/A Rain Light Rain
2:40 PM 37.4 °F - 35.6 °F 93% 30.09 in 3.0 mi Calm Calm - N/A Rain Light Rain
2:46 PM 37.4 °F - 37.4 °F 100% 30.09 in 3.0 mi Calm Calm - N/A Rain Light Rain
2:54 PM 37.4 °F - 37.4 °F 100% 30.08 in 2.5 mi Calm Calm - N/A Rain Light Rain
2:55 PM 36.9 °F - 36.7 °F 99% 30.08 in 2.5 mi Calm Calm - 0.04 in Rain Light Rain
3:00 PM 37.4 °F - 37.4 °F 100% 30.08 in 2.5 mi Calm Calm - N/A Rain Light Rain
3:26 PM 37.4 °F - 37.4 °F 100% 30.09 in 2.0 mi Calm Calm - N/A Rain Light Rain
3:55 PM 37.2 °F - 36.9 °F 99% 30.08 in 2.5 mi Calm Calm - 0.04 in Rain Light Rain
4:33 PM 37.4 °F 34.9 °F 37.4 °F 100% 30.08 in 2.5 mi NE 3.5 mph - N/A   Overcast
5:00 PM 37.4 °F - 37.4 °F 100% 30.08 in 2.5 mi Calm Calm - N/A   Light Drizzle
5:10 PM 37.4 °F - 37.4 °F 100% 30.08 in 2.5 mi Calm Calm - N/A   Overcast
5:44 PM 37.4 °F - 37.4 °F 100% 30.08 in 2.5 mi Calm Calm - N/A   Light Drizzle
5:54 PM 37.4 °F - 37.4 °F 100% 30.08 in 2.5 mi Calm Calm - N/A   Overcast
5:55 PM 37.2 °F - 37.2 °F 100% 30.08 in 2.5 mi Calm Calm - 0.00 in   Overcast
6:18 PM 37.4 °F - 37.4 °F 100% 30.08 in 3.0 mi Calm Calm - N/A   Overcast
6:55 PM 37.6 °F - 37.6 °F 100% 30.08 in 2.5 mi Calm Calm - 0.00 in   Light Drizzle
7:42 PM 37.4 °F - 37.4 °F 100% 30.07 in 2.5 mi Calm Calm - N/A   Light Drizzle
7:55 PM 37.6 °F - 37.6 °F 100% 30.07 in 2.5 mi Calm Calm - 0.03 in   Light Drizzle
7:57 PM 37.4 °F - 37.4 °F 100% 30.08 in 3.0 mi Calm Calm - N/A   Light Drizzle
8:04 PM 37.4 °F - 37.4 °F 100% 30.08 in 4.0 mi Calm Calm - N/A   Overcast
8:08 PM 37.4 °F - 37.4 °F 100% 30.08 in 4.0 mi Calm Calm - N/A   Light Drizzle
8:46 PM 37.4 °F - 37.4 °F 100% 30.07 in 4.0 mi Calm Calm - N/A   Overcast
8:55 PM 38.1 °F 35.7 °F 38.1 °F 100% 30.06 in 3.0 mi NE 3.5 mph - 0.01 in Rain Light Rain
8:59 PM 37.4 °F 34.9 °F 37.4 °F 100% 30.06 in 2.5 mi NE 3.5 mph - N/A Rain Light Rain
9:06 PM 37.4 °F 34.9 °F 37.4 °F 100% 30.06 in 3.0 mi ENE 3.5 mph - N/A   Light Drizzle
9:09 PM 37.4 °F 34.9 °F 37.4 °F 100% 30.06 in 3.0 mi ENE 3.5 mph - N/A   Overcast
9:33 PM 39.2 °F 37.0 °F 39.2 °F 100% 30.05 in 2.5 mi NE 3.5 mph - N/A   Overcast
9:46 PM 39.2 °F - 39.2 °F 100% 30.04 in 3.0 mi Calm Calm - N/A   Overcast
9:55 PM 38.3 °F - 38.3 °F 100% 30.04 in 3.0 mi Calm Calm - 0.01 in   Overcast
10:14 PM 39.2 °F - 39.2 °F 100% 30.03 in 4.0 mi Calm Calm - N/A   Overcast
10:15 PM 39.2 °F - 39.2 °F 100% 30.03 in 4.0 mi Calm Calm - N/A   Overcast
10:36 PM 39.2 °F - 39.2 °F 100% 30.04 in 4.0 mi Calm Calm - N/A   Overcast
10:55 PM 38.5 °F - 38.5 °F 100% 30.03 in 3.0 mi Calm Calm - N/A   Overcast
11:30 PM 39.2 °F - 39.2 °F 100% 30.02 in 4.0 mi Calm Calm - N/A   Overcast
11:38 PM 39.2 °F - 39.2 °F 100% 30.02 in 4.0 mi Calm Calm - N/A   Overcast
11:55 PM 38.7 °F - 38.7 °F 100% 30.01 in 4.0 mi Calm Calm - N/A   Overcast